Weather in Krasnyy Yar

Russia / Kaliningrad Oblast     54°41′06″N   21°21′28″E
temp.,
°C
wind,
m/s
gust,
m/s
humid.,
%
clouds,
%
prec.,
mm/h
press.,
hPa
HPBL,
m
16 september, thu
thu1623:00+13e497757 0.0 1017260
02:00+12ese4108290 0.0 1016268
05:00+12e41082100 0.0 1015284
08:00+13ese41078100 0.0 1014316
11:00+16ese4979100 0.4 1013556
14:00+14se41196100 6.4 1012570
17:00+14se4996100 0.5 1011602
20:00+14se2498100 0.5 1010215
17 september, fri
fri1723:00+14wnw1198100 0.0 101032
02:00+13nne1199100 0.0 101011
05:00+13ne129977 0.0 101054
08:00+13ene2298100 0.0 1009161
11:00+15ene2392100 0.0 1010391
14:00+14ene4590100 0.1 1010527
17:00+12ene4889100 0.0 1011465
20:00+10ene51089100 0.0 1012534
18 september, sat
sat1823:00+9ene51088100 0.0 1013544
02:00+9ene51093100 0.3 1014614
05:00+7ene51194100 1.3 1014561
08:00+7ne41188100 1.8 1015592
11:00+11ene5964100 0.0 1015797
14:00+13ene585176 0.0 10161140
17:00+13ne4852100 0.0 10161274
20:00+12ne41046100 0.0 10161155
19 september, sun
sun1923:00+11ne51050100 0.0 1017805
02:00+7nne4116725 0.0 1017418
05:00+5nne411771 0.0 1018356
08:00+6nne412740 0.0 1018475
11:00+12ne58584 0.0 1018913
14:00+14ene5856100 0.0 10181353
17:00+10ne51066100 0.0 1019983
20:00+10ne41164100 0.0 1020959
20 september, mon
mon2023:00+8ne4117494 0.0 1020772
02:00+6nne398335 0.0 1021400
05:00+4nne411855 0.0 1021381
08:00+5ne410769 0.0 1022416
11:00+10ne575419 0.0 1022971
14:00+13ne57425 0.0 10221431
17:00+13ne46495 0.0 10221410
20:00+6nne36660 0.0 102488